Regional Weather Roundup
Issued by NWS

Home | Current Version | Previous Version | Text Only | Print | Product List | Glossary On
Versions: 1 2 3 4 5 6 7 8 9 10 11 12 13 14 15 16 17 18 19 20 21 22 23 24 25 26 27 28 29 30 31 32 33 34 35 36 37 38 39 40 41 42 43 44 45 46 47 48 49 50
000
ASUS43 KLOT 161403
RWRIL

ILLINOIS REGIONAL WEATHER ROUNDUP
NATIONAL WEATHER SERVICE CHICAGO/ROMEOVILLE IL
800 AM CST MON JAN 16 2017

NOTE: "FAIR" INDICATES FEW OR NO CLOUDS BELOW 12,000 FEET WITH NO
SIGNIFICANT WEATHER AND/OR OBSTRUCTIONS TO VISIBILITY.

* THESE STATIONS ARE NOT UNDER NWS QUALITY CONTROL. THEY ALSO MAY NOT
  REPORT WEATHER SUCH AS PRECIPITATION OR FOG.

ILZ001-002-007-009-015-016-024-161500-
NORTHWEST ILLINOIS

CITY           SKY/WX    TMP DP  RH WIND       PRES   REMARKS
MOLINE         LGT RAIN  33  31  92 E9        30.18F FOG     WCI  25
STERLING*      MIX PCPN  32  31  96 E12       30.21F FOG     WCI  23
SAVANNA*       RAIN      32  30  92 E6        30.21S WCI  26
$$

ILZ003-004-008-010-011-017-018-161500-
NORTH CENTRAL ILLINOIS

CITY           SKY/WX    TMP DP  RH WIND       PRES   REMARKS
ROCKFORD       FRZ RAIN  32  28  85 E6        30.24F WCI  26
FREEPORT*      CLOUDY    31  29  92 E9        30.23S WCI  23
ROCHELLE*      LGT RAIN  32  31  96 E7        30.23F WCI  26
DE KALB*       MIX PCPN  32  31  96 E8        30.23F WCI  25
$$

ILZ005-006-012>014-019>023-161500-
NORTHEAST ILLINOIS

CITY           SKY/WX    TMP DP  RH WIND       PRES   REMARKS
CHICAGO-OHARE  FRZ RAIN  32  30  92 E6        30.25F WCI  26
CHICAGO-MIDWAY LGT RAIN  33  29  85 E6        30.26R FOG     WCI  28
AURORA         LGT RAIN  33  31  92 E8        30.24F VSB 3/4 WCI  26
LANSING*       MIX PCPN  32  32 100 NE3       30.27R
JOLIET*        RAIN      33  33  99 CALM      30.26S VSB 3/4
WAUKEGAN       CLOUDY    30  26  85 CALM      30.26S
DUPAGE AIRPORT MIX PCPN  32  29  88 E6        30.23F FOG     WCI  26
WHEELING       FRZ RAIN  32  28  85 E3        30.27S FOG
MORRIS*        MIX PCPN  32  32  98 E5        30.24S VSB 1/2 WCI  28
ROMEOVILLE*    DRZL/FOG  32  32 100 E5        30.26S VSB 3/4 WCI  27
NORTHERLY ISL    N/A     32  30  93 E2          N/A
$$

LMZ740>746-161500-
SOUTHERN LAKE MICHIGAN

STATION/POSITION SKY/WX   TEMP    WIND        PRES    VSBY  WAVE
                          AIR SEA DIR/SP/G                  HT/PER
                          (F)     (DEG/KT/KT) (MB)    (MI)  (FT/S)
HARRISON CRIB              34      90/ 10/ 10   N/A
BURNHAM HARBOR             32      50/  3/  5   N/A
CALUMET HARBOR             33      70/  5/  7 1024.0F
BURNS HARBOR               32      60/  8/ 10 1025.1
MICHIGAN CITY              32      40/  5/  5   N/A
$$

ILZ025>027-034>036-040-047-049-050-058-095>099-161500-
WEST-CENTRAL ILLINOIS

CITY           SKY/WX    TMP DP  RH WIND       PRES   REMARKS
QUINCY         LGT RAIN  34  34 100 E10       30.09F VSB 1/2 WCI  26
MACOMB*        MIX PCPN  33  33 100 E10       30.17S VSB 3/4 WCI  24
JACKSONVILLE*  LGT RAIN  34  34 100 E8        30.13F VSB 1/2 WCI  27
PITTSFIELD*    FOG       35  35 100 E6        30.12S VSB 1/2 WCI  30
$$

ILZ028>032-037-038-041>044-048-051>054-059>061-161500-
CENTRAL ILLINOIS

CITY           SKY/WX    TMP DP  RH WIND       PRES   REMARKS
BLOOMINGTON    FOG       33  33 100 E8        30.21R VSB 1/8 WCI  26
DECATUR        FOG       34  34 100 E7        30.19S VSB 1/4 WCI  28
PEORIA         FOG       34  34 100 E8        30.19S VSB<1/4 WCI  27
LACON*         CLOUDY    32  32 100 E6        30.21S FOG     WCI  26
LINCOLN*       FOG       35  35 100 E6        30.19S VSB 3/4 WCI  30
SPRINGFIELD    FOG       36  35  96 E8        30.16F VSB<1/4 WCI  30
TAYLORVILLE    FOG       35  35 100 E7        30.16F VSB 1/2 WCI  29
$$

ILZ033-039-045-046-055>057-062-063-161500-
EAST-CENTRAL ILLINOIS

CITY           SKY/WX    TMP DP  RH WIND       PRES   REMARKS
CHAMPAIGN      FOG       35  34  96 E10       30.20F VSB 1/4 WCI  27
MATTOON        FOG       38  37  97 SE8       30.19S VSB 1/4 WCI  32
PARIS*         FOG       37  37 100 SE6       30.23S VSB 1/2 WCI  32
$$

ILZ079-100>102-161500-
SOUTHWEST ILLINOIS

CITY           SKY/WX    TMP DP  RH WIND       PRES   REMARKS
ALTON          FOG       37  37 100 E5        30.14S VSB 1/4 WCI  34
BELLEVILLE     FOG       41  41 100 SE7       30.13S VSB 1/4
CAHOKIA*       FOG       42  40  92 SE7       30.13S VSB 1/4
SPARTA*        FOG       42  41  99 SE12      30.14F VSB 1/4
$$

ILZ064>066-069>071-074>076-080>082-084>086-088>090-092>094-161500-
SOUTH-CENTRAL ILLINOIS

CITY           SKY/WX    TMP DP  RH WIND       PRES   REMARKS
CARBONDALE     FOG       43  43 100 E6        30.15F VSB 1/4
CAIRO*         FOG       44  44 100 NE5       30.16S VSB 1/2
EFFINGHAM*     FOG       40  40 100 E5        30.20F VSB 1/2
MARION         FOG       45  43  93 SE7       30.17F VSB 1/4
MT. VERNON     FOG       42  42 100 E6        30.18S VSB 3/4
CENTRALIA*     FOG       42  42 100 E7        30.15F VSB 1/4
SALEM*         FOG       42  41  96 E6        30.16F VSB 1/2
$$

ILZ067-068-072-073-078-083-087-091-161500-
SOUTHEAST ILLINOIS

CITY           SKY/WX    TMP DP  RH WIND       PRES   REMARKS
LAWRENCEVILLE  CLOUDY    41  41 100 E7        30.22F FOG
FLORA*         FOG       41  41  99 E6        30.19F VSB 1/2
FAIRFIELD*     FOG       41  41 100 CALM      30.18F VSB 1/2
HARRISBURG*    FOG       42  42 100 E8        30.19S VSB 1/2
ROBINSON*      CLOUDY    39  39  99 SE6       30.23F FOG     WCI  35
CARMI*         CLOUDY    42  42 100 E5        30.19S FOG
$$

ABBREVIATIONS USED IN REMARKS
   TC - TEMPERATURE IN CELSIUS
  WCI - WIND CHILL INDEX
   HX - HEAT INDEX
  VSB - VISIBILITY
$$




USA.gov is the U.S. government's official web portal to all federal, state and local government web resources and services.